Flag for U.S.A. Weather past 2 weeks in Inglewood, California, U.S.A.

Now
69 °F

Sunny.


Feels Like: 69 °F
Forecast: 56 / 71 °F
Wind: No wind

Location: Hawthorne Municipal Airport

Current Time: Apr 1, 2015 at 11:19:16 AM

Latest Report: Apr 1, 2015 at 10:53 AM


Visibility: 10 mi

Pressure: 30.00 "Hg

Humidity: 47%

Dew point: 48 °F

Location of InglewoodLocation

Historic Weather in Inglewood — Graph

°F

Inglewood temperature yesterday

Maximum temperature yesterday: 69 °F (at 11:53 AM)
Minimum temperature yesterday: 59 °F (at 12:53 AM)
Average temperature yesterday: 64 °F

Past Weeks' High & Low Weather Summary

 TemperatureHumidityPressure
High89 °F (Mar 26, 12:53 PM)96% (Mar 29, 2:53 AM)30.19 "Hg (Mar 29, 2:53 AM)
Low59 °F (Mar 23, 3:53 AM)12% (Mar 26, 11:53 AM)29.89 "Hg (Mar 17, 5:53 PM)
Average67 °F66%30.03 "Hg
* Reported Mar 17 9:53 AM — Apr 1 9:53 AM, Inglewood, Weather by CustomWeather, © 2015

Note: Actual official high and low records may vary slightly from our data, if they occured in-between our weather recording intervals... More about our weather records

Advertising

Inglewood weather history for previous 24 hours

 ConditionsComfort  
Time TempWeatherWind HumidityBarometerVisibility
9:53 AM
Wed, Apr 1
66 °FPassing clouds.No wind61%30.02 "Hg10 mi
8:53 AM63 °FScattered clouds.3 mph73%30.01 "Hg10 mi
7:53 AM62 °FMore clouds than sun.No wind75%30.01 "Hg9 mi
6:53 AM61 °FClear.5 mph78%29.97 "Hg10 mi
5:53 AM60 °FClear.No wind78%29.96 "Hg10 mi
4:53 AM61 °FClear.3 mph78%29.95 "Hg10 mi
3:53 AM61 °FClear.6 mph78%29.97 "Hg10 mi
2:53 AM62 °FMostly cloudy.No wind78%29.98 "Hg10 mi
1:53 AM62 °FOvercast.No wind78%29.98 "Hg10 mi
12:53 AM62 °FPassing clouds.3 mph80%29.98 "Hg10 mi
11:53 PM
Tue, Mar 31
63 °FPassing clouds.No wind78%29.97 "Hg10 mi
10:53 PM63 °FClear.5 mph75%29.97 "Hg10 mi
9:53 PM64 °FClear.3 mph73%29.97 "Hg10 mi
8:53 PM64 °FClear.No wind75%29.96 "Hg10 mi
7:53 PM64 °FSunny.5 mph73%29.95 "Hg10 mi
6:53 PM66 °FSunny.7 mph68%29.93 "Hg10 mi
5:53 PM67 °FSunny.9 mph66%29.94 "Hg10 mi
4:53 PM69 °FSunny.6 mph59%29.95 "Hg10 mi
3:53 PM68 °FSunny.9 mph61%29.96 "Hg10 mi
3:01 PM67 °FSunny.8 mph63%29.98 "Hg10 mi
1:53 PM67 °FSunny.12 mph63%30.00 "Hg8 mi
12:53 PM67 °FSunny.12 mph63%30.01 "Hg5 mi
11:53 AM69 °FSunny.12 mph61%30.02 "Hg3 mi
Weather by CustomWeather, © 2015

See weather overviewHow to use our weather pages